Regional Weather Roundup
Issued by NWS

Home | Current Version | Previous Version | Text Only | Print | Product List | Glossary Off
Versions: 1 2 3 4 5 6 7 8 9 10 11 12 13 14 15 16 17 18 19 20 21 22 23 24 25 26 27

000
ASUS45 KCYS 221110
RWRWY

WYOMING REGIONAL WEATHER ROUNDUP
NATIONAL WEATHER SERVICE CHEYENNE WY
400 AM MST MON JAN 22 2018

NOTE:  "FAIR" INDICATES FEW OR NO CLOUDS BELOW 12,000 FEET
WITH NO SIGNIFICANT WEATHER AND/OR OBSTRUCTIONS TO VISIBILITY.

WYZ001-221200-
YELLOWSTONE NATIONAL PARK

CITY           SKY/WX    TMP DP  RH WIND       PRES   REMARKS
LK YELLOWSTONE   N/A      5   2  87 CALM      30.15F
W YELLOWSTONE  NOT AVBL

$$
WYZ002>013-054>058-071-098>099-221200-
NORTHERN WYOMING

CITY           SKY/WX    TMP DP  RH WIND       PRES   REMARKS
JACKSON        FLURRIES  -4  -8  83 N6        30.22F WCI -16
CODY           FAIR      26   6  42 W20G25    30.01S WCI  12
GREYBULL       FAIR       6   2  83 SE5       30.09R WCI  -3
WORLAND        FAIR      -6  -8  91 SE3       30.07S
SHERIDAN       FAIR       9   2  73 CALM      29.97F
BUFFALO        FAIR      21   1  41 W8        29.96S WCI  11
GILLETTE       FAIR      20  10  65 VRB6      29.97S WCI  12
HULETT         FAIR      14  12  92 MISG      29.98S
NEWCASTLE      FAIR      12   9  85 N10       29.99R WCI  -1

$$
WYZ014>020-022>026-101>103-221200-
CENTRAL WYOMING

CITY           SKY/WX    TMP DP  RH WIND       PRES   REMARKS
BIG PINEY      FAIR      -1  -6  79 VRB5      30.12S WCI -11
PINEDALE       FAIR       9   0  66 NW15      30.11F WCI  -8
DUBOIS         FAIR      18   1  49 NW20G28   30.06F WCI   1
LANDER         FAIR       9   0  67 CALM      30.03R
RIVERTON       FAIR       0  -4  83 W5        30.04S WCI -10
CASPER         FAIR      13   6  74 SW18      30.02S WCI  -4
DOUGLAS        FAIR       4   1  88 NW7       30.01S WCI  -8

$$
WYZ021-027>030-104>119-221200-
SOUTHERN WYOMING

CITY           SKY/WX    TMP DP  RH WIND       PRES   REMARKS
EVANSTON       FAIR       5   3  91 SW12      30.18F WCI -11
FORT BRIDGER   FAIR      10   5  79 W21       30.20  WCI  -9
ROCK SPRINGS   FAIR      10   5  80 W20       30.14R WCI  -9
DIXON          FLURRIES  -2  -6  82 NE5       30.20S WCI -12
RAWLINS        FAIR      10   5  80 MISG      30.05F
SARATOGA       FAIR       1   0  92 SE6       30.09S WCI -10
LARAMIE        FAIR      -3  -5  90 S12       29.97R WCI -21
CHEYENNE       FAIR      19   8  62 NW16G24   29.93S WCI   4
TORRINGTON     FAIR      15   9  76 W12       30.00R WCI   2

$$




USA.gov is the U.S. government's official web portal to all federal, state and local government web resources and services.